DW2802 Ogijares ES current weather conditions

sailwx.info

Wind from 157

Air temperature 12.8° C
Dewpoint 5.4° C

Last reported at 2014-Oct-25 03:43 UTC.
Time now 2014-Oct-25 04:16 UTC

Location: N 37°07' W 003°36'.
View on Google Maps.

See reports from other nearby stations

  
Tides and Currents Weather Stations Pressure Air Temp Water Temp Dewpoint Dewpoint Depression Visibility Wind Speed Wind Dir Waves Ship Positions
date/time (UTC)wind fromknots sea level pressurealtimeterstation pressurevisibilityair tempwater tempwave heightnotes
2014-Oct-25 03:43 157 12.8
2014-Oct-25 03:28 157 13.3
2014-Oct-25 03:13 157 13.9
2014-Oct-25 02:58 157 13.3
2014-Oct-25 02:43 157 13.3
2014-Oct-25 02:27 157 13.9
2014-Oct-25 02:12 157 14.4
2014-Oct-25 01:57 155 14.4
2014-Oct-25 01:42 155 14.4
2014-Oct-25 01:27 155 14.4
2014-Oct-25 01:12 155 14.4
2014-Oct-25 00:57 155 14.4
2014-Oct-25 00:42 155 15.0
2014-Oct-25 00:27 155 15.0
2014-Oct-25 00:12 155 15.0
2014-Oct-24 23:57 155 15.0
2014-Oct-24 23:42 155 15.6
2014-Oct-24 23:27 155 15.6
2014-Oct-24 23:12 155 15.6
2014-Oct-24 22:57 155 15.6
2014-Oct-24 22:42 155 15.6
2014-Oct-24 22:27 155 16.1
2014-Oct-24 22:12 156 16.7
2014-Oct-24 21:57 141 16.1
2014-Oct-24 21:42 141 16.7
2014-Oct-24 21:27 141 16.7
2014-Oct-24 21:12 140 16.7
2014-Oct-24 20:57 140 17.2
2014-Oct-24 20:42 140 17.8
2014-Oct-24 20:27 140 18.3
2014-Oct-24 20:12 140 18.3
2014-Oct-24 19:57 141 18.9
2014-Oct-24 19:42 141 18.9
2014-Oct-24 19:27 141 19.4
2014-Oct-24 19:12 141 20.0
2014-Oct-24 18:57 141 20.6
2014-Oct-24 18:42 141 0 gusting 10 20.6
2014-Oct-24 18:27 155 6 gusting 12 21.1
2014-Oct-24 18:12 145 6 gusting 11 21.1
2014-Oct-24 17:57 155 5 gusting 9 21.1
2014-Oct-24 17:42 163 6 gusting 9 21.7
2014-Oct-24 17:27 149 4 gusting 7 21.7
2014-Oct-24 17:12 160 3 gusting 6 22.8
2014-Oct-24 16:57 192 1 gusting 4 23.9
2014-Oct-24 16:42 192 0 gusting 4 24.4
2014-Oct-24 16:27 200 2 gusting 5 25.0
2014-Oct-24 16:12 192 25.6
2014-Oct-24 15:57 196 0 gusting 5 25.6
2014-Oct-24 15:42 202 1 gusting 6 26.1
2014-Oct-24 15:27 261 3 gusting 7 26.1
2014-Oct-24 15:12 306 26.1
2014-Oct-24 14:57 303 0 gusting 8 25.6
2014-Oct-24 14:12 307 2 gusting 7 25.6
2014-Oct-24 13:57 319 0 gusting 5 25.6
2014-Oct-24 13:42 304 25.6
2014-Oct-24 13:27 298 25.0
2014-Oct-24 13:12 342 0 gusting 4 25.6
2014-Oct-24 12:57 033 0 gusting 3 25.6
2014-Oct-24 12:41 033 0 gusting 4 25.6
2014-Oct-24 12:26 034 24.4
2014-Oct-24 12:11 035 23.3
2014-Oct-24 11:56 036 23.3
2014-Oct-24 11:41 042 0 gusting 4 22.8
2014-Oct-24 11:26 046 22.2
2014-Oct-24 11:11 061 22.2
2014-Oct-24 10:56 066 21.1
2014-Oct-24 10:41 084 21.1
2014-Oct-24 10:26 084 20.6
2014-Oct-24 10:11 084 20.6
2014-Oct-24 09:56 084 19.4
2014-Oct-24 09:41 130 18.9
2014-Oct-24 09:26 132 18.3
2014-Oct-24 09:11 132 18.3
2014-Oct-24 08:56 132 17.2
2014-Oct-24 08:41 132 17.2
2014-Oct-24 08:25 132 18.9
2014-Oct-24 08:10 132 17.2
2014-Oct-24 07:55 132 15.6
2014-Oct-24 07:40 132 14.4
2014-Oct-24 07:25 132 13.3
2014-Oct-24 07:10 132 12.8
2014-Oct-24 06:55 132 12.2
2014-Oct-24 06:40 132 12.2
2014-Oct-24 06:25 132 12.2
2014-Oct-24 06:10 132 12.8
2014-Oct-24 05:55 132 12.8
2014-Oct-24 05:40 132 12.2
2014-Oct-24 05:25 132 12.8
2014-Oct-24 05:10 132 12.8
2014-Oct-24 04:55 132 12.8
2014-Oct-24 04:40 132 12.8
2014-Oct-24 04:25 132 12.8
2014-Oct-24 04:11 132 13.3
2014-Oct-24 03:55 132 12.8
2014-Oct-24 03:40 132 13.3
2014-Oct-24 03:25 132 1 gusting 4 13.3
2014-Oct-24 03:10 132 1 gusting 4 13.9
2014-Oct-24 02:55 132 1 gusting 6 13.9
2014-Oct-24 02:40 130 2 gusting 4 13.3
2014-Oct-24 02:25 133 13.9
2014-Oct-24 02:10 133 14.4
2014-Oct-24 01:55 133 14.4
2014-Oct-24 01:39 133 14.4
2014-Oct-24 01:24 133 15.0
2014-Oct-24 01:09 133 15.0
2014-Oct-24 00:54 133 2 gusting 3 15.0
2014-Oct-24 00:39 132 3 gusting 6 15.0
2014-Oct-24 00:24 128 3 gusting 6 15.0
2014-Oct-24 00:09 123 15.0
2014-Oct-23 23:54 122 15.6
2014-Oct-23 23:39 122 15.0
2014-Oct-23 23:24 122 15.0
2014-Oct-23 23:09 122 15.0
2014-Oct-23 22:54 122 15.6
2014-Oct-23 22:39 122 16.1
2014-Oct-23 22:24 122 16.1
2014-Oct-23 22:09 122 16.7
2014-Oct-23 21:54 122 16.1
2014-Oct-23 21:39 122 16.7
2014-Oct-23 21:24 122 16.7
2014-Oct-23 21:09 122 1 gusting 5 16.7
2014-Oct-23 20:54 080 2 gusting 6 16.7
2014-Oct-23 20:39 167 16.7
2014-Oct-23 20:24 160 16.1
2014-Oct-23 20:09 076 16.7
2014-Oct-23 19:54 076 2 gusting 5 16.7
2014-Oct-23 19:39 206 17.2
2014-Oct-23 19:24 206 17.2
2014-Oct-23 19:09 206 17.8
2014-Oct-23 18:54 206 18.3
2014-Oct-23 18:24 207 18.9
2014-Oct-23 18:09 218 18.9
2014-Oct-23 17:54 232 19.4
2014-Oct-23 17:39 277 21.7
2014-Oct-23 17:24 277 23.3
2014-Oct-23 17:09 277 23.9
2014-Oct-23 16:54 277 24.4
2014-Oct-23 16:39 277 24.4
2014-Oct-23 16:24 277 24.4
2014-Oct-23 16:09 277 25.0
2014-Oct-23 15:54 313 0 gusting 4 24.4
2014-Oct-23 15:39 317 1 gusting 5 25.0
2014-Oct-23 15:24 302 25.0
2014-Oct-23 15:09 315 25.0
2014-Oct-23 14:54 311 25.0
2014-Oct-23 14:39 314 25.0
2014-Oct-23 14:24 322 1 gusting 5 25.0
2014-Oct-23 14:09 326 25.0
2014-Oct-23 13:54 331 2 gusting 4 24.4
2014-Oct-23 13:39 330 24.4
2014-Oct-23 13:24 330 1 gusting 4 23.9
2014-Oct-23 13:09 324 23.3
2014-Oct-23 12:54 340 23.3
2014-Oct-23 12:38 351 23.3
2014-Oct-23 12:23 274 22.8
2014-Oct-23 12:08 273 22.8
2014-Oct-23 11:53 273 21.7
2014-Oct-23 11:38 272 21.7
2014-Oct-23 11:23 272 21.7
2014-Oct-23 11:08 242 21.1
2014-Oct-23 10:53 242 20.6
2014-Oct-23 10:38 242 19.4
2014-Oct-23 10:23 241 19.4
2014-Oct-23 10:08 241 18.9
2014-Oct-23 09:53 196 18.9
2014-Oct-23 09:38 195 17.8
2014-Oct-23 09:23 157 17.2
2014-Oct-23 09:08 148 17.2
2014-Oct-23 08:53 146 16.7
2014-Oct-23 08:38 144 16.7
2014-Oct-23 08:23 144 16.7
2014-Oct-23 08:07 144 16.1
2014-Oct-23 07:52 144 14.4
2014-Oct-23 07:37 144 13.9
2014-Oct-23 07:22 144 12.8
2014-Oct-23 07:07 144 11.7
2014-Oct-23 06:52 144 12.2
2014-Oct-23 06:37 144 11.7
2014-Oct-23 06:22 144 12.2
2014-Oct-23 06:07 144 12.2
2014-Oct-23 05:52 144 12.2
2014-Oct-23 05:37 144 12.2
2014-Oct-23 05:22 144 12.8
2014-Oct-23 05:07 144 13.3
2014-Oct-23 04:52 144 12.8
2014-Oct-23 04:37 144 12.8
2014-Oct-23 04:22 144 13.3
2014-Oct-23 04:07 144 13.9